STARLINK-11497 [DTC]

Last updated on Fri Jan 31 2025 00:02:04 GMT+0000 (Coordinated Universal Time)

1 62470U 24254J 25029.99674996 .00002415 00000+0 16735-4 0 9990 2 62470 42.9950 137.8441 0000998 259.9520 100.1237 15.77858490 5896
UTC large
Height (km)
Speed (km/s)
/
Latitude / Longitude
Inclination (degrees)
Orbital Period (minutes)
Azimuth
Elevation
Range (km)
Doppler Factor

Next 0 passes for location: London (51.5072 / 0.1276)

Sorry there are no passes over London.